Time,TemperatureF,DewpointF,PressureIn,WindDirection,WindDirectionDegrees,WindSpeedMPH,WindSpeedGustMPH,Humidity,HourlyPrecipIn,Conditions,Clouds,dailyrainin,SoftwareType,DateUTC
2013-01-12 03:33:00,52.0,-99.9,-100.00,SW,225,1.0,4.0,-999,-99.99,,,-99.99,,2013-01-12 09:33:00,
2013-01-12 03:43:00,52.0,-99.9,-100.00,SW,225,1.0,4.0,-999,-99.99,,,-99.99,,2013-01-12 09:43:00,
2013-01-12 03:53:00,52.0,-99.9,-100.00,SW,225,1.0,4.0,-999,-99.99,,,-99.99,,2013-01-12 09:53:00,
2013-01-12 07:33:00,40.0,-99.9,-100.00,NNE,23,10.0,14.0,-999,-99.99,,,-99.99,,2013-01-12 13:33:00,
2013-01-12 07:43:00,40.0,-99.9,-100.00,NNE,23,10.0,14.0,-999,-99.99,,,-99.99,,2013-01-12 13:43:00,
2013-01-12 07:53:00,40.0,-99.9,-100.00,NNE,23,10.0,14.0,-999,-99.99,,,-99.99,,2013-01-12 13:53:00,
2013-01-12 09:04:00,38.0,-99.9,-100.00,NE,35,13.0,16.0,-999,-99.99,,,-99.99,,2013-01-12 15:04:00,
2013-01-12 09:13:00,38.0,-99.9,-100.00,NE,35,13.0,16.0,-999,-99.99,,,-99.99,,2013-01-12 15:13:00,
2013-01-12 10:30:00,43.0,-99.9,-100.00,NW,306,13.0,13.0,-999,-99.99,,,-99.99,,2013-01-12 16:30:00,
2013-01-12 10:33:00,38.0,-99.9,-100.00,NW,312,12.0,14.0,-999,-99.99,,,-99.99,,2013-01-12 16:33:00,
2013-01-12 10:43:00,38.0,-99.9,-100.00,NW,312,12.0,14.0,-999,-99.99,,,-99.99,,2013-01-12 16:43:00,
2013-01-12 10:53:00,38.0,-99.9,-100.00,NW,312,12.0,14.0,-999,-99.99,,,-99.99,,2013-01-12 16:53:00,
2013-01-12 11:23:00,43.0,-99.9,-100.00,NW,306,13.0,13.0,-999,-99.99,,,-99.99,,2013-01-12 17:23:00,
2013-01-12 11:30:00,45.0,-99.9,-100.00,WNW,294,4.0,23.0,-999,-99.99,,,-99.99,,2013-01-12 17:30:00,
2013-01-12 11:53:00,43.0,-99.9,-100.00,NW,311,3.0,15.0,-999,-99.99,,,-99.99,,2013-01-12 17:53:00,
2013-01-12 12:03:00,43.0,-99.9,-100.00,NW,311,3.0,15.0,-999,-99.99,,,-99.99,,2013-01-12 18:03:00,
2013-01-12 12:23:00,45.0,-99.9,-100.00,WNW,294,4.0,23.0,-999,-99.99,,,-99.99,,2013-01-12 18:23:00,
2013-01-12 15:03:00,50.0,-99.9,-100.00,NNE,23,4.0,17.0,-999,-99.99,,,-99.99,,2013-01-12 21:03:00,
2013-01-12 15:13:00,50.0,-99.9,-100.00,NNE,23,4.0,17.0,-999,-99.99,,,-99.99,,2013-01-12 21:13:00,
2013-01-12 15:22:00,50.0,-99.9,-100.00,NNE,23,4.0,17.0,-999,-99.99,,,-99.99,,2013-01-12 21:22:00,
2013-01-12 15:33:00,49.0,-99.9,-100.00,WNW,290,12.0,21.0,-999,-99.99,,,-99.99,,2013-01-12 21:33:00,
2013-01-12 15:43:00,49.0,-99.9,-100.00,WNW,290,12.0,21.0,-999,-99.99,,,-99.99,,2013-01-12 21:43:00,
2013-01-12 18:53:00,45.0,-99.9,-100.00,NW,322,6.0,6.0,-999,-99.99,,,-99.99,,2013-01-13 00:53:00,
2013-01-12 19:03:00,45.0,-99.9,-100.00,NW,322,6.0,6.0,-999,-99.99,,,-99.99,,2013-01-13 01:03:00,
2013-01-12 19:20:00,36.0,-99.9,-100.00,North,357,4.0,7.0,-999,-99.99,,,-99.99,,2013-01-13 01:20:00,
2013-01-12 20:03:00,36.0,-99.9,-100.00,North,357,4.0,7.0,-999,-99.99,,,-99.99,,2013-01-13 02:03:00,
2013-01-12 20:13:00,36.0,-99.9,-100.00,North,357,4.0,7.0,-999,-99.99,,,-99.99,,2013-01-13 02:13:00,
2013-01-12 21:23:00,34.0,-99.9,-100.00,NNW,328,6.0,7.0,-999,-99.99,,,-99.99,,2013-01-13 03:23:00,
2013-01-12 21:33:00,34.0,-99.9,-100.00,NNW,328,6.0,7.0,-999,-99.99,,,-99.99,,2013-01-13 03:33:00,